Weather History for KCLK - September, 2012

Change the Weather History Date:

Friday, September 7, 2012

  Actual Average (KCSM) Record (KCSM)
Temperature  
Mean Temperature 83 °F -  
Max Temperature 98 °F 88 °F 100 °F (1998)
Min Temperature 68 °F 64 °F 55 °F (2004)
Cooling Degree Days 18    
Growing Degree Days 33 (Base 50)    
Moisture  
Dew Point 58 °F    
Average Humidity 51    
Maximum Humidity 78    
Minimum Humidity 21    
Precipitation  
Precipitation 0.00 in - - ()
Sea Level Pressure  
Sea Level Pressure 29.90 in    
Wind  
Wind Speed 6 mph (North)    
Max Wind Speed 34 mph    
Max Gust Speed 44 mph    
Visibility 10 miles    
Events      
Averages and records for this station are not official NWS values.
T = Trace of Precipitation, MM = Missing Value Source: NWS Daily Summary

Daily Weather History Graph

Daily Weather History Graph

Search for Another Location

Airport or City:

Trip Planner

Search our weather history database for the weather conditions in past years. The results will help you decide how hot, cold, wet, or windy it might be!

Date:

Astronomy

Sep. 07, 2012 Rise Set
Actual Time 7:12 AM CDT 7:53 PM CDT
Civil Twilight 6:47 AM CDT 8:19 PM CDT
Nautical Twilight 6:16 AM CDT 8:49 PM CDT
Astronomical Twilight 5:45 AM CDT 9:20 PM CDT
Moon No Moon Rise 1:51 PM CDT (9/7)
Length of Visible Light 13h 32m
Length of Day
12h 40m
Waning Gibbous, 58% of the Moon is Illuminated
Sep 7
Waning Gibbous
Sep 8
Last Quarter
Sep 15
New
Sep 22
First Quarter
Sep 29
Full

Hourly Weather History & Observations

Time (CDT) Temp. Heat Index Dew Point Humidity Pressure Visibility Wind Dir Wind Speed Gust Speed Precip Events Conditions
12:15 AM 78.8 °F - 62.6 °F 57% 29.88 in 10.0 mi Calm Calm - N/A   Clear
12:35 AM 78.8 °F - 62.6 °F 57% 29.88 in 10.0 mi Calm Calm - N/A   Clear
12:55 AM 78.8 °F - 62.6 °F 57% 29.87 in 10.0 mi Calm Calm - N/A   Clear
1:15 AM 78.8 °F - 62.6 °F 57% 29.87 in 10.0 mi Calm Calm - N/A   Clear
1:35 AM 77.0 °F - 62.6 °F 61% 29.87 in 10.0 mi Calm Calm - N/A   Clear
2:15 AM 77.0 °F - 62.6 °F 61% 29.86 in 10.0 mi Calm Calm - N/A   Clear
2:35 AM 77.0 °F - 62.6 °F 61% 29.86 in 10.0 mi Calm Calm - N/A   Clear
2:55 AM 77.0 °F - 62.6 °F 61% 29.87 in 10.0 mi Calm Calm - N/A   Clear
3:15 AM 73.4 °F - 64.4 °F 73% 29.88 in 10.0 mi Calm Calm - N/A   Clear
3:35 AM 73.4 °F - 64.4 °F 73% 29.87 in 10.0 mi Calm Calm - N/A   Clear
3:55 AM 73.4 °F - 64.4 °F 73% 29.87 in 10.0 mi Calm Calm - N/A   Clear
4:15 AM 71.6 °F - 64.4 °F 78% 29.87 in 10.0 mi Calm Calm - N/A   Clear
4:35 AM 71.6 °F - 64.4 °F 78% 29.86 in 10.0 mi Calm Calm - N/A   Clear
4:55 AM 73.4 °F - 64.4 °F 73% 29.86 in 10.0 mi Calm Calm - N/A   Clear
5:15 AM 73.4 °F - 64.4 °F 73% 29.86 in 10.0 mi Calm Calm - N/A   Clear
5:35 AM 73.4 °F - 64.4 °F 73% 29.86 in 10.0 mi Calm Calm - N/A   Clear
5:55 AM 73.4 °F - 64.4 °F 73% 29.85 in 10.0 mi Calm Calm - N/A   Clear
6:15 AM 71.6 °F - 64.4 °F 78% 29.85 in 10.0 mi Calm Calm - N/A   Clear
6:35 AM 71.6 °F - 64.4 °F 78% 29.85 in 10.0 mi Calm Calm - N/A   Clear
6:55 AM 71.6 °F - 62.6 °F 73% 29.85 in 10.0 mi Calm Calm - N/A   Clear
7:15 AM 71.6 °F - 62.6 °F 73% 29.85 in 10.0 mi SE 4.6 mph - N/A   Clear
7:35 AM 73.4 °F - 62.6 °F 69% 29.85 in 10.0 mi SE 3.5 mph - N/A   Clear
8:15 AM 71.6 °F - 62.6 °F 73% 29.85 in 10.0 mi South 3.5 mph - N/A   Clear
8:35 AM 73.4 °F - 62.6 °F 69% 29.85 in 10.0 mi SSE 8.1 mph - N/A   Clear
8:55 AM 77.0 °F - 62.6 °F 61% 29.85 in 10.0 mi SSE 8.1 mph - N/A   Clear
9:15 AM 78.8 °F - 62.6 °F 57% 29.85 in 10.0 mi South 8.1 mph - N/A   Clear
9:35 AM 78.8 °F - 60.8 °F 54% 29.86 in 10.0 mi South 9.2 mph - N/A   Clear
9:55 AM 80.6 °F 81.5 °F 60.8 °F 51% 29.86 in 10.0 mi South 9.2 mph - N/A   Clear
10:15 AM 82.4 °F 82.9 °F 60.8 °F 48% 29.86 in 10.0 mi SSW 6.9 mph - N/A   Clear
10:35 AM 86.0 °F 86.1 °F 60.8 °F 43% 29.86 in 10.0 mi SSW 4.6 mph - N/A   Clear
10:55 AM 87.8 °F 87.1 °F 59.0 °F 38% 29.86 in 10.0 mi SW 6.9 mph - N/A   Clear
11:15 AM 89.6 °F 88.9 °F 59.0 °F 36% 29.85 in 10.0 mi SSW 6.9 mph - N/A   Clear
11:35 AM 91.4 °F 89.9 °F 57.2 °F 31% 29.85 in 10.0 mi SW 8.1 mph - N/A   Clear
12:15 PM 95.0 °F 93.0 °F 55.4 °F 26% 29.85 in 10.0 mi WSW 6.9 mph - N/A   Clear
12:35 PM 96.8 °F 94.4 °F 53.6 °F 23% 29.84 in 10.0 mi WSW 12.7 mph 17.3 mph N/A   Clear
12:55 PM 96.8 °F 94.4 °F 53.6 °F 23% 29.84 in 10.0 mi WSW 9.2 mph 16.1 mph N/A   Clear
1:15 PM 95.0 °F 92.7 °F 53.6 °F 25% 29.84 in 10.0 mi WSW 12.7 mph 16.1 mph N/A   Clear
1:35 PM 98.6 °F - 51.8 °F 21% 29.84 in 10.0 mi West 11.5 mph 19.6 mph N/A   Clear
1:55 PM 96.8 °F 94.4 °F 53.6 °F 23% 29.84 in 10.0 mi Calm Calm - N/A   Clear
2:15 PM 95.0 °F 93.0 °F 55.4 °F 26% 29.85 in 10.0 mi Calm Calm - N/A   Clear
2:35 PM 96.8 °F 95.1 °F 55.4 °F 25% 29.84 in 10.0 mi Calm Calm - N/A   Clear
2:55 PM 96.8 °F 96.2 °F 59.0 °F 28% 29.85 in 10.0 mi North 12.7 mph - N/A   Clear
3:15 PM 93.2 °F 93.3 °F 60.8 °F 34% 29.85 in 10.0 mi North 18.4 mph 23.0 mph N/A   Clear
3:35 PM 91.4 °F 91.4 °F 60.8 °F 36% 29.85 in 10.0 mi North 24.2 mph 27.6 mph N/A   Clear
4:15 PM 89.6 °F 87.3 °F 53.6 °F 29% 29.86 in 10.0 mi North 33.4 mph 39.1 mph N/A   Mostly Cloudy
4:35 PM 87.8 °F - 50.0 °F 27% 29.87 in 7.0 mi North 33.4 mph 41.4 mph N/A   Overcast
5:15 PM 80.6 °F - 44.6 °F 28% 29.90 in 5.0 mi North 34.5 mph 43.7 mph N/A   Haze
5:35 PM 78.8 °F - 44.6 °F 30% 29.93 in 5.0 mi North 34.5 mph 42.6 mph N/A   Haze
5:55 PM 77.0 °F - 46.4 °F 34% 29.95 in 7.0 mi NNE 33.4 mph 41.4 mph N/A   Overcast
6:15 PM 73.4 °F - 50.0 °F 44% 29.97 in 10.0 mi NNE 31.1 mph 43.7 mph N/A   Mostly Cloudy
6:35 PM 71.6 °F - 51.8 °F 50% 29.98 in 10.0 mi NNE 23.0 mph 35.7 mph N/A   Scattered Clouds
6:55 PM 71.6 °F - 50.0 °F 46% 30.00 in 10.0 mi North 21.9 mph 32.2 mph N/A   Scattered Clouds
7:15 PM 71.6 °F - 51.8 °F 50% 30.02 in 10.0 mi North 21.9 mph 29.9 mph N/A   Clear
7:35 PM 71.6 °F - 51.8 °F 50% 30.02 in 10.0 mi North 15.0 mph 26.5 mph N/A   Clear
7:55 PM 69.8 °F - 51.8 °F 53% 30.02 in 10.0 mi North 21.9 mph 31.1 mph N/A   Clear
8:15 PM 69.8 °F - 51.8 °F 53% 30.03 in 10.0 mi NNE 15.0 mph 24.2 mph N/A   Clear
8:35 PM 69.8 °F - 51.8 °F 53% 30.04 in 10.0 mi North 20.7 mph 26.5 mph N/A   Clear
8:55 PM 69.8 °F - 51.8 °F 53% 30.05 in 10.0 mi North 16.1 mph 24.2 mph N/A   Mostly Cloudy
9:15 PM 69.8 °F - 51.8 °F 53% 30.07 in 10.0 mi North 19.6 mph 31.1 mph N/A   Scattered Clouds
9:35 PM 68.0 °F - 51.8 °F 56% 30.08 in 10.0 mi North 18.4 mph 28.8 mph N/A   Scattered Clouds
10:55 PM 68.0 °F - 50.0 °F 52% 30.12 in 10.0 mi North 17.3 mph 27.6 mph N/A   Clear
11:35 PM 68.0 °F - 46.4 °F 46% 30.15 in 10.0 mi North 6.9 mph 17.3 mph N/A   Clear
11:55 PM 68.0 °F - 44.6 °F 43% 30.15 in 10.0 mi NNE 16.1 mph 23.0 mph N/A   Clear